"Pseudo-MPEC" for P129xe7

Created 2025 Apr 28 21:31:11 UT using Find_Orb

Click here for an explanation of pseudo-MPECs

 
 Astrometry: 
     P129xe7* C2025 04 27.27251711 06 07.540-01 49 30.96   ~4R82 21.75wXNEOCPF51
     P129xe7  C2025 04 27.28493511 06 06.376-01 49 12.21   ~4R82 21.71wXNEOCPF51
     P129xe7  C2025 04 27.29739911 06 05.206-01 48 53.79   ~4R82 21.58wXNEOCPF51
     P129xe7  C2025 04 27.35967411 05 59.465-01 47 20.07   ~4RN2 21.42GVNEOCPF51
     P129xe7  C2025 04 27.36031711 05 59.406-01 47 19.10   ~4RN2 21.19GVNEOCPF51
     P129xe7 KC2025 04 28.17444411 05 34.959-01 27 14.86   ~4S52 21.3 GVNEOCPV06
     P129xe7 KC2025 04 28.17690211 05 34.747-01 27 10.87   ~4S52 21.4 GVNEOCPV06
     P129xe7 KC2025 04 28.17913311 05 34.481-01 27 08.07   ~4S52 21.4 GVNEOCPV06
     P129xe7 3C2025 04 28.40255311 05 22.032-01 20 57.25   ~4SBV 21.17GVNEOCPT14
     P129xe7 3C2025 04 28.40353311 05 21.956-01 20 55.78   ~4SBV 21.34GVNEOCPT14
     P129xe7 3C2025 04 28.40450911 05 21.883-01 20 54.22   ~4SBV 21.39GVNEOCPT14

Station data:
(F51) Pan-STARRS 1, Haleakala  (N20.707234 W156.255910)  US/Hawaii.
   Observers J. Bulger, T. Lowe, A. Schultz, M. Willman. Measurers K.
   Chambers, S. Chastel, T. de Boer, L. Denneau, J. Fairlamb, H. Flewelling,
   M. Huber, C.-C. Lin, E. Magnier, Y. Ramanjooloo, R. Wainscoat, R. Weryk.
   1.8-m Ritchey-Chrétien + CCD.
(T14) Mauna Kea-UH/Tholen NEO Follow-Up (CFHT)  (N19.825252 W155.468876)
   US/Hawaii.  Observer R. Weryk. 3.6-m Canada-France-Hawaii Telescope.
(V06) Catalina Sky Survey-Kuiper  (N32.416871 W110.732550)  US/Arizona.
   Observers T. A. Pruyne, B. M. Africano, E. J. Christensen, G. A. Farneth,
   D. C. Fuls, A. R. Gibbs, A. D. Grauer, H. Gröller, J. A. Johnson, R. A.
   Kowalski, S. M. Larson, G. J. Leonard, D. Rankin, R. L. Seaman, F. C.
   Shelly, K. W. Wierzchoś. 1.55-m reflector + CCD.

Orbital elements:  P129xe7
   Perihelion 2025 Jun 8.15624 +/- 0.586 TT =  3:44:59 (JD 2460834.65624)
Epoch 2025 Apr 28.0 TT = JDT 2460793.5   Earth MOID: 0.0090      AutoNEOCP
M 327.88400271 +/- 0.6              (J2000 ecliptic)
n   0.78034329 +/- 0.00581          Peri.   27.02083 +/- 0.37
a   1.16845569 +/- 0.0058           Node   229.41793 +/- 0.12
e   0.1304633 +/- 0.00449           Incl.    1.54236 +/- 0.014
P   1.263/461.327d         H 25.84  G  0.15   U  9.3
q 1.01601504 +/- 0.000201    Q 1.32089634 +/- 0.0118
From 11 observations 2025 Apr. 27-28 (27.2 hr); mean residual 0".23
Residuals in arcseconds: 
250427 F51  .10+  .00     250427 F51  .04-  .07-    250428 T14  .00   .01+    
250427 F51  .01+  .19+    250428 V06  .30+  .04+    250428 T14  .01-  .03-    
250427 F51  .04-  .06-    250428 V06  .25+  .29+    250428 T14  .02+  .02+    
250427 F51  .01-  .07-    250428 V06  .90-  .31-    

Ephemerides (geocentric):
Date (UTC) HH   RA             Dec           delta  r     elong  mag " sig PA
---- --------  ------------   ------------  ------ ------ -----  --- --------
2025 04 28 22  11 05 12.587   -01 06 54.31  .05844 1.0448 129.0 21.6 .491 119
2025 04 28 23  11 05 11.394   -01 05 49.98  .05840 1.0447 129.0 21.6 .530 122
2025 04 29 00  11 05 10.208   -01 04 45.61  .05836 1.0447 128.9 21.6 .570 124
2025 04 29 01  11 05 09.032   -01 03 41.19  .05831 1.0446 128.9 21.6 .613 127
2025 04 29 02  11 05 07.863   -01 02 36.72  .05827 1.0445 128.8 21.6 .658 129
2025 04 29 03  11 05 06.702   -01 01 32.20  .05822 1.0445 128.8 21.6 .706 130
2025 04 29 04  11 05 05.550   -01 00 27.64  .05818 1.0444 128.7 21.6 .755 132
2025 04 29 05  11 05 04.405   -00 59 23.03  .05814 1.0444 128.7 21.6 .806 134
2025 04 29 06  11 05 03.269   -00 58 18.37  .05809 1.0443 128.6 21.6 .860 135
2025 04 29 07  11 05 02.141   -00 57 13.66  .05805 1.0443 128.6 21.6 .915 136
2025 04 29 08  11 05 01.022   -00 56 08.91  .05801 1.0442 128.5 21.6 .973 138
2025 04 29 09  11 04 59.910   -00 55 04.11  .05796 1.0442 128.5 21.6 1.03 139
2025 04 29 10  11 04 58.807   -00 53 59.26  .05792 1.0441 128.4 21.6 1.09 140
2025 04 29 11  11 04 57.712   -00 52 54.36  .05788 1.0440 128.4 21.6 1.16 141
2025 04 29 12  11 04 56.625   -00 51 49.42  .05783 1.0440 128.3 21.6 1.22 141
2025 04 29 13  11 04 55.547   -00 50 44.43  .05779 1.0439 128.3 21.6 1.29 142
2025 04 29 14  11 04 54.476   -00 49 39.39  .05775 1.0439 128.2 21.6 1.36 143
2025 04 29 15  11 04 53.414   -00 48 34.30  .05770 1.0438 128.2 21.6 1.43 144
2025 04 29 16  11 04 52.360   -00 47 29.16  .05766 1.0438 128.1 21.6 1.50 144
2025 04 29 17  11 04 51.315   -00 46 23.98  .05762 1.0437 128.1 21.6 1.57 145
2025 04 29 18  11 04 50.278   -00 45 18.74  .05757 1.0436 128.0 21.6 1.65 146
2025 04 29 19  11 04 49.249   -00 44 13.46  .05753 1.0436 128.0 21.6 1.73 146
2025 04 29 20  11 04 48.228   -00 43 08.13  .05749 1.0435 127.9 21.6 1.81 147
2025 04 29 21  11 04 47.216   -00 42 02.75  .05744 1.0435 127.9 21.6 1.89 147
2025 04 29 22  11 04 46.212   -00 40 57.33  .05740 1.0434 127.8 21.6 1.97 148
2025 04 29 23  11 04 45.217   -00 39 51.85  .05736 1.0434 127.8 21.6 2.06 148
2025 04 30 00  11 04 44.229   -00 38 46.33  .05731 1.0433 127.7 21.6 2.15 149
2025 04 30 01  11 04 43.251   -00 37 40.76  .05727 1.0433 127.7 21.6 2.24 149
2025 04 30 02  11 04 42.280   -00 36 35.14  .05723 1.0432 127.6 21.6 2.33 149
2025 04 30 03  11 04 41.318   -00 35 29.47  .05718 1.0431 127.6 21.6 2.42 150
2025 04 30 04  11 04 40.364   -00 34 23.75  .05714 1.0431 127.5 21.6 2.51 150
2025 04 30 05  11 04 39.419   -00 33 17.98  .05710 1.0430 127.5 21.6 2.61 150
2025 04 30 06  11 04 38.482   -00 32 12.16  .05706 1.0430 127.4 21.6 2.71 151
2025 04 30 07  11 04 37.553   -00 31 06.30  .05701 1.0429 127.4 21.6 2.81 151
2025 04 30 08  11 04 36.633   -00 30 00.38  .05697 1.0429 127.3 21.6 2.91 151
2025 04 30 09  11 04 35.721   -00 28 54.42  .05693 1.0428 127.3 21.6 3.02 152
2025 04 30 10  11 04 34.818   -00 27 48.41  .05688 1.0428 127.2 21.6 3.12 152
2025 04 30 11  11 04 33.923   -00 26 42.34  .05684 1.0427 127.2 21.6 3.23 152
2025 04 30 12  11 04 33.036   -00 25 36.23  .05680 1.0427 127.1 21.6 3.34 153
2025 04 30 13  11 04 32.158   -00 24 30.07  .05675 1.0426 127.1 21.6 3.45 153
2025 04 30 14  11 04 31.289   -00 23 23.86  .05671 1.0425 127.0 21.6 3.56 153
2025 04 30 15  11 04 30.428   -00 22 17.60  .05667 1.0425 127.0 21.6 3.68 153
2025 04 30 16  11 04 29.575   -00 21 11.29  .05662 1.0424 126.9 21.6 3.80 153
2025 04 30 17  11 04 28.731   -00 20 04.93  .05658 1.0424 126.9 21.6 3.92 154
2025 04 30 18  11 04 27.895   -00 18 58.51  .05654 1.0423 126.8 21.6 4.04 154
2025 04 30 19  11 04 27.068   -00 17 52.05  .05650 1.0423 126.8 21.6 4.16 154
2025 04 30 20  11 04 26.249   -00 16 45.54  .05645 1.0422 126.7 21.6 4.28 154
2025 04 30 21  11 04 25.439   -00 15 38.98  .05641 1.0422 126.7 21.6 4.41 155